Location: Ferintosh
(52.7647°N, 112.9692°W)
Time: 07:08:18
(UTC+00:00)

A-11 Canister half - Pass Details

Date: 25 May 2024
Orbit: 1514 x 1685 km, 47.2° (Epoch: 22 June)

Event Time Altitude Azimuth Distance (km) Brightness Sun altitude
Rises 07:50:25 0° 200° (SSW) 4,799 - -16.0°
Reaches altitude 10° 07:54:12 10° 189° (S) 3,789 - -16.0°
Exits shadow 07:57:30 19° 172° (S) 3,079 10.0 -15.9°
Maximum altitude 08:01:36 26° 138° (SE) 2,688 9.9 -15.8°
Drops below altitude 10° 08:08:50 10° 86° (E) 3,708 11.2 -15.7°
Sets 08:12:27 0° 75° (ENE) 4,678 11.9 -15.6°
